Theta_e
305 306 306 306 306 306 306 307 307 308 309 309 310 309 309 309 311 311 311 313 309 305 305 308 309 303 302 304 306 311 308 311 309 303 301 301 301 300 301 302 299 297 294 296 299 294 292 313 309 299 301 301 304 303
305 305 306 305 306 306 306 306 307 307 308 309 310 310 309 310 311 311 309 314 315 308 304 311 313 314 309 308 305 310 310 315 315 307 305 304 300 300 299 297 307 299 303 301 303 300 307 307 307 303 304 302 302 302
304 305 305 305 305 306 306 306 306 307 308 309 310 310 309 309 310 309 310 311 308 304 304 301 303 306 308 311 317 308 314 315 314 318 312 306 301 302 298 301 305 307 308 302 301 303 302 303 304 305 306 304 304 304
305 305 305 305 305 305 306 306 306 307 308 308 309 310 309 309 309 309 306 310 308 306 297 301 315 313 318 313 319 318 315 315 315 317 307 304 302 306 303 303 304 308 308 303 301 302 302 303 304 306 306 306 305 305
304 305 305 305 305 305 306 306 307 307 307 307 308 309 309 309 309 308 306 310 311 307 299 301 309 314 316 318 318 317 315 312 314 311 304 308 309 308 307 307 306 310 305 300 299 305 301 300 304 307 306 305 305 305
304 304 305 305 305 305 306 306 306 307 307 307 308 309 308 308 308 306 302 310 314 311 302 299 310 312 314 315 314 316 316 314 315 311 309 311 313 310 303 303 311 311 311 309 307 309 304 304 307 308 306 306 306 305
304 304 305 305 305 305 306 306 307 307 307 307 309 309 308 308 307 301 301 306 307 307 303 300 303 312 315 314 314 313 316 315 316 307 305 307 308 309 305 303 310 312 311 310 310 307 303 304 305 307 308 309 308 307
304 304 304 305 305 305 306 306 307 307 307 308 308 308 307 308 307 303 306 308 307 307 306 301 302 305 313 309 309 314 310 310 307 305 305 306 306 307 303 308 311 311 310 309 308 307 305 305 307 307 308 308 306 306
304 304 304 305 305 305 305 306 306 306 307 307 308 307 304 302 300 305 314 315 310 308 300 303 300 299 312 309 309 308 308 302 305 301 303 305 301 298 308 309 310 310 309 307 307 307 307 306 306 307 307 306 305 305
304 304 304 305 305 305 305 306 306 307 307 307 302 296 293 298 310 313 308 304 304 304 304 301 307 303 307 305 304 305 305 301 296 301 304 301 303 309 313 313 312 312 309 307 303 302 304 304 305 306 305 306 306 306
304 304 305 305 305 305 306 306 306 307 306 301 294 290 299 306 307 305 300 299 297 296 300 303 307 303 308 303 302 305 301 301 297 300 300 296 301 309 311 310 312 312 310 308 307 306 306 306 306 306 307 308 308 307
304 304 305 305 305 305 306 306 306 301 300 299 296 301 302 301 301 295 296 298 296 295 300 299 304 308 308 309 304 303 299 300 297 303 298 295 303 311 311 312 313 312 311 309 309 307 307 309 309 308 308 307 306 308
304 304 304 305 305 305 305 305 305 305 302 298 293 292 292 292 287 289 290 292 294 298 302 305 303 307 308 308 303 300 297 297 302 296 295 300 308 311 312 313 312 312 311 310 309 309 309 310 311 309 307 308 308 308
304 304 304 305 305 305 305 306 305 302 297 290 287 283 286 287 290 292 292 295 299 300 304 307 307 308 306 303 303 300 301 300 294 292 294 303 307 310 312 313 312 310 310 309 309 310 310 310 309 310 309 308 307 306
304 304 305 304 305 305 305 305 303 299 294 287 288 281 286 292 295 297 299 298 302 304 308 309 309 308 304 303 303 300 296 293 294 294 302 308 309 311 311 310 309 308 308 308 309 309 309 309 307 305 306 306 306 306
304 303 301 304 305 304 304 302 299 297 293 289 288 286 290 289 292 297 299 300 306 308 311 310 306 304 303 302 298 297 295 293 296 305 308 310 309 310 308 308 308 308 308 308 309 308 308 306 305 304 304 305 304 305
302 294 303 304 304 304 303 297 296 291 290 289 288 292 292 291 291 292 299 302 307 307 303 305 302 300 306 301 298 299 298 301 307 309 311 311 311 309 308 308 308 308 308 308 307 307 306 305 305 303 302 302 304 304
297 302 304 304 302 301 298 297 292 289 287 289 288 291 293 293 294 297 301 303 306 308 306 303 308 303 300 298 298 306 306 308 309 311 311 311 311 310 309 308 308 309 308 308 308 307 305 304 302 301 301 302 304 306
300 302 304 303 301 297 293 292 293 287 288 291 294 295 293 294 297 302 304 306 310 312 307 306 303 299 301 303 306 307 310 312 311 311 310 312 312 310 309 309 309 309 309 308 307 306 305 304 303 302 301 302 303 305
302 303 303 304 304 296 291 291 295 290 288 293 295 293 294 296 303 305 308 308 310 310 307 304 304 304 308 310 313 313 313 315 313 310 309 310 310 310 309 309 308 309 308 307 306 304 304 302 303 303 303 303 304 305
302 302 303 302 299 297 293 290 289 291 293 292 296 297 299 305 302 306 306 308 308 307 305 307 308 310 313 315 316 316 315 315 313 312 310 308 310 309 309 309 310 310 309 307 306 304 304 303 303 303 302 306 306 306
299 303 299 300 296 295 292 292 290 293 292 293 299 303 298 299 299 301 306 305 305 306 308 312 313 315 316 316 315 314 313 313 312 309 306 307 308 308 308 308 309 307 307 307 307 305 304 304 304 304 304 304 305 306
301 300 297 296 290 288 288 295 290 290 286 296 301 298 299 298 301 305 302 304 307 314 315 315 314 317 316 317 317 315 315 314 312 311 310 310 310 309 309 308 309 308 306 305 307 307 306 299 300 304 304 304 304 304
302 295 291 290 289 286 291 289 293 290 296 299 299 298 299 300 303 302 300 304 310 315 314 315 316 315 316 316 314 314 314 314 312 311 312 310 308 306 309 308 308 308 309 308 307 308 307 306 302 305 304 303 304 302
288 289 290 286 288 286 287 288 290 295 297 299 299 298 299 302 299 299 300 305 310 312 311 311 312 315 313 312 313 313 314 315 313 310 310 311 308 307 306 307 307 308 310 307 306 307 307 306 306 307 306 305 304 304
284 290 287 288 288 286 288 292 295 297 298 298 299 300 302 300 298 296 299 304 309 310 310 311 311 311 309 314 313 312 312 315 314 311 309 312 311 308 305 304 304 303 308 309 308 307 306 305 305 306 306 305 295 306
284 287 291 294 292 292 293 297 300 298 297 297 298 300 298 296 297 299 304 307 311 313 313 313 314 312 311 310 312 312 314 315 314 313 312 312 310 311 309 306 304 305 308 309 307 307 306 304 304 304 303 303 304 305
288 287 286 291 290 292 294 298 298 298 297 301 303 298 296 297 290 302 304 309 314 314 314 314 314 314 312 312 314 314 313 313 312 312 312 310 310 311 309 306 305 293 307 308 308 307 307 305 305 305 304 304 304 306
286 290 291 292 298 299 299 298 298 301 304 304 299 293 291 297 300 302 306 310 314 314 312 312 310 314 313 313 312 312 312 312 309 305 304 303 304 304 306 307 306 306 304 300 290 300 306 306 306 307 308 307 308 308
290 296 297 299 296 294 298 301 299 300 300 299 298 301 302 303 305 308 311 313 313 312 311 311 311 312 311 311 310 309 310 311 311 308 305 303 304 306 308 307 307 306 305 304 302 299 290 300 299 305 305 304 304 303
301 301 298 297 296 299 301 303 304 304 303 303 305 304 300 303 306 311 312 313 313 314 313 312 311 311 311 309 309 309 307 309 310 311 311 310 309 308 308 307 307 307 306 305 304 302 301 301 302 302 302 302 304 301
300 298 296 296 296 301 304 301 300 301 300 300 300 303 303 302 300 306 310 312 312 311 303 312 313 312 312 309 308 307 299 310 312 312 311 311 310 310 309 308 308 307 307 305 307 306 305 305 301 302 303 303 303 303
299 299 299 299 298 298 300 300 299 299 300 299 300 300 300 299 297 303 308 311 311 311 311 312 311 309 307 304 302 298 294 296 292 291 292 294 296 300 308 309 310 309 308 308 306 305 304 303 302 301 303 303 302 301
Wind_Speed
18 17 17 16 16 14 13 11 10 8 7 8 9 7 6 6 6 2 1 4 3 3 7 3 4 3 5 4 3 7 5 6 4 3 3 3 3 3 5 3 6 5 5 2 3 4 4 2 2 6 6 5 9 7
19 18 17 17 16 15 14 12 11 9 8 8 10 8 6 7 5 5 2 2 3 4 8 7 17 17 12 16 3 3 3 3 2 1 1 3 2 2 5 3 4 2 6 7 3 4 3 4 4 5 8 9 5 11
22 20 19 18 18 16 14 13 13 12 10 9 9 9 6 5 2 4 2 3 2 3 7 1 7 5 6 11 9 2 3 2 4 1 2 2 5 4 3 2 5 3 2 6 4 3 4 7 6 6 8 11 9 13
21 20 20 19 18 17 16 14 13 12 11 9 9 10 8 6 3 1 1 2 1 3 3 7 3 8 11 8 10 6 2 4 2 0 2 3 4 2 4 4 5 3 5 7 4 3 7 3 6 10 12 13 12 10
20 20 20 19 19 18 16 15 14 12 11 10 10 11 9 7 6 4 3 4 3 1 3 6 11 8 6 7 9 6 3 1 2 4 1 1 1 4 3 4 3 2 8 5 7 12 6 8 7 11 14 13 13 13
20 21 20 20 19 19 18 16 15 13 12 10 11 11 8 5 5 2 3 5 9 3 2 4 6 7 2 8 8 6 4 4 2 2 2 1 1 5 5 2 4 2 3 7 7 14 8 12 11 7 13 13 11 12
21 20 21 21 20 20 19 18 16 14 12 10 10 9 5 6 2 4 2 1 6 2 2 5 6 7 7 3 1 1 1 3 3 2 1 3 2 4 4 3 3 4 3 10 17 17 10 6 10 10 14 12 9 9
21 21 22 21 21 20 19 19 17 14 11 9 9 8 5 6 5 5 6 12 6 3 3 3 6 5 4 2 2 3 3 0 2 2 1 3 3 3 3 2 8 9 12 14 13 6 10 10 10 9 12 12 13 11
22 23 23 22 22 20 20 19 17 14 10 10 11 8 2 1 3 4 12 6 4 3 3 3 3 4 1 3 3 1 2 1 2 2 1 5 1 2 9 11 14 15 7 12 12 16 15 14 13 12 13 11 11 9
23 23 23 23 22 21 21 19 16 14 13 16 4 3 2 5 7 7 1 3 1 3 2 4 2 4 2 2 3 3 0 3 2 4 2 4 2 3 15 13 15 11 18 18 18 9 13 11 11 8 8 8 10 9
23 23 24 24 23 22 21 19 17 16 17 2 3 4 3 6 1 4 4 5 4 3 4 5 6 3 3 4 5 2 4 2 3 6 6 1 2 4 8 9 7 14 15 12 11 11 11 12 11 8 7 9 8 8
24 24 25 24 23 23 21 19 18 8 3 5 5 1 1 2 3 5 7 4 6 9 5 7 6 5 5 4 4 2 4 3 5 2 5 2 5 5 14 10 12 14 14 13 14 13 11 11 8 8 8 9 8 8
25 25 25 24 23 22 21 19 21 17 6 4 4 3 0 2 5 7 10 6 7 6 6 5 5 5 4 1 2 3 4 4 3 4 5 5 3 9 11 12 14 13 14 13 11 10 10 9 9 9 9 7 10 9
26 26 25 24 23 22 21 21 20 9 5 3 3 3 5 5 7 7 4 5 4 5 6 6 5 4 4 3 4 5 2 4 3 5 6 4 9 10 11 12 14 13 13 14 12 12 12 11 9 8 9 9 9 8
26 26 24 22 23 22 21 23 12 3 4 3 4 7 10 7 6 5 9 5 5 6 5 4 5 3 5 5 2 5 3 4 6 7 5 6 10 14 13 13 15 14 14 13 11 11 11 11 10 7 6 7 8 8
26 24 9 23 23 25 24 14 4 3 2 3 6 5 7 3 8 6 9 10 4 5 4 4 5 2 6 2 5 6 10 6 5 4 4 10 11 11 14 15 14 13 14 12 10 11 11 11 10 8 7 7 6 7
16 3 25 23 26 25 18 5 3 3 4 6 6 7 6 5 8 9 5 10 5 8 5 4 8 7 5 3 4 6 6 5 5 5 7 15 16 16 15 15 15 14 13 12 11 11 10 9 8 8 7 3 6 6
4 17 27 30 19 10 3 2 3 4 7 7 5 4 5 3 7 9 7 3 5 4 4 5 8 3 2 4 2 3 2 3 4 7 8 11 15 15 15 16 14 14 13 12 12 11 11 9 7 5 6 5 6 5
15 19 30 24 8 4 3 2 2 3 7 3 4 5 3 6 10 14 10 3 5 6 6 1 3 5 6 5 3 3 5 6 10 6 7 12 15 15 14 14 14 13 13 12 12 9 8 8 6 5 5 5 4 4
30 29 24 10 2 3 5 2 2 3 4 3 4 4 5 9 9 9 4 5 5 5 2 3 3 4 5 5 6 10 8 10 13 12 8 7 9 15 14 13 10 11 10 9 8 8 7 5 4 5 5 5 5 4
16 10 5 3 1 3 2 2 3 4 4 4 3 4 8 9 10 6 4 3 6 2 3 2 10 3 5 7 7 9 9 11 10 11 15 10 8 10 9 8 11 9 10 8 7 7 8 6 4 4 5 4 4 4
4 6 3 2 2 2 3 3 1 2 4 5 8 8 4 5 5 3 5 5 4 4 10 10 4 8 10 10 9 7 9 12 10 9 12 13 11 10 9 8 9 7 7 8 8 8 6 5 5 5 4 4 4 4
8 3 2 2 1 2 2 4 3 2 4 6 3 2 1 2 5 4 6 3 4 7 5 3 6 10 14 11 12 10 10 14 10 9 9 9 9 9 9 6 7 9 7 5 7 7 7 7 6 5 5 4 4 3
5 3 4 5 4 3 2 4 4 6 11 10 4 3 5 4 3 5 5 3 3 2 5 11 13 11 9 10 9 9 8 10 9 8 9 11 9 5 7 6 5 5 6 6 7 7 8 7 7 5 5 5 5 4
3 4 3 4 2 2 3 3 7 9 6 6 5 2 1 4 4 4 3 3 6 6 5 5 6 10 12 7 7 6 7 11 10 10 5 8 6 5 4 3 4 5 7 8 5 9 9 7 8 8 7 6 7 7
4 5 6 6 5 5 7 6 4 4 6 5 4 3 3 5 6 3 1 2 5 2 3 7 8 8 6 9 11 9 8 7 9 9 5 7 8 7 6 6 5 1 3 8 9 10 9 8 8 10 9 9 7 6
4 5 3 4 3 3 6 7 1 4 4 2 1 0 4 5 4 0 1 3 2 1 2 4 8 8 8 6 5 5 7 8 11 8 6 7 6 7 9 9 8 5 6 8 7 9 10 7 6 6 6 4 7 7
4 3 5 3 4 4 7 4 3 2 3 1 3 5 4 3 5 2 3 1 4 5 1 4 5 7 6 5 8 8 8 9 10 11 10 8 6 5 7 6 5 9 6 5 6 6 8 7 6 6 6 6 6 6
4 4 6 11 11 5 0 2 2 3 2 4 4 2 3 1 1 2 3 2 4 4 5 7 5 6 7 7 7 9 10 12 15 15 13 7 6 4 4 7 6 7 7 7 8 8 10 6 6 5 5 4 4 5
6 7 4 3 5 4 3 2 3 4 3 4 5 4 4 3 3 3 3 5 2 2 4 6 5 9 9 11 8 7 4 8 10 13 10 8 7 5 6 7 7 6 6 8 7 5 5 6 5 4 4 4 4 4
4 3 2 4 4 2 3 5 7 6 3 6 6 10 5 3 4 5 4 1 4 7 11 8 7 6 10 8 8 10 6 2 10 12 11 9 8 7 7 6 6 5 5 6 6 5 5 4 3 3 5 5 7 6
2 2 2 5 2 0 3 5 3 4 4 4 5 4 3 4 5 3 4 3 6 8 5 10 10 6 6 6 6 6 8 6 8 11 15 10 8 7 7 6 6 6 6 6 6 5 7 6 4 3 4 5 3 2
7 4 3 4 3 3 3 5 5 4 5 4 4 3 4 4 3 3 3 2 4 6 7 7 7 8 9 9 9 6 8 7 8 9 9 9 10 8 6 5 6 7 8 6 5 5 5 5 3 3 4 5 6 7
Wind_Direction
230 227 222 220 220 224 227 222 222 232 256 246 228 216 233 226 0 267 249 203 191 272 285 274 31 351 332 352 353 314 15 340 7 88 100 260 124 205 91 175 169 145 128 112 80 97 224 49 8 159 181 82 122 106
227 223 219 213 216 217 220 215 214 220 233 248 233 217 234 235 274 342 260 226 192 223 255 292 273 255 211 223 268 300 251 283 290 79 10 113 94 79 143 162 36 78 175 153 167 201 275 310 131 93 121 120 122 122
225 220 217 210 208 211 210 209 205 211 222 230 233 219 228 248 272 2 306 315 1 260 286 305 268 293 192 198 183 197 309 301 322 80 220 150 88 119 119 214 106 79 133 91 96 339 76 86 65 88 108 111 123 129
218 218 213 209 203 204 204 206 205 208 217 223 224 213 223 242 241 276 331 305 223 265 257 280 345 293 290 186 179 201 261 333 258 305 218 121 115 141 186 158 116 188 97 129 64 82 78 32 113 122 111 117 123 121
213 212 212 206 201 198 199 201 201 203 215 220 223 206 213 242 237 264 230 229 227 268 282 288 312 271 239 179 165 195 171 238 310 321 52 130 111 81 5 69 33 171 163 148 199 183 143 173 157 131 130 133 137 131
209 209 207 204 198 194 193 195 199 199 210 218 215 203 205 198 223 255 267 207 201 208 337 303 288 288 271 170 166 212 191 223 196 226 213 128 223 101 88 87 276 315 183 171 160 153 138 150 142 127 128 142 142 134
205 205 204 201 195 190 189 188 193 197 203 208 208 188 205 191 189 221 233 172 20 346 235 294 290 264 198 151 182 248 121 239 179 266 79 140 29 82 92 148 224 60 92 111 118 113 96 164 148 139 128 146 124 116
203 203 199 195 190 186 185 184 188 193 194 195 182 139 177 176 280 293 266 241 156 203 206 242 267 317 146 159 239 185 201 143 270 207 356 87 16 77 75 202 119 110 102 107 117 75 124 118 113 113 125 134 120 122
204 197 192 188 183 181 181 181 183 185 181 170 148 163 83 198 220 230 297 213 192 185 208 210 235 235 139 186 219 329 120 149 277 110 176 86 6 165 175 160 149 149 145 138 109 108 116 123 128 129 136 140 134 139
191 186 184 180 177 177 177 177 175 173 161 149 110 137 225 216 318 337 272 134 138 248 214 236 240 264 112 136 245 123 29 164 113 251 76 81 224 288 167 169 154 145 133 131 119 120 128 134 144 140 152 149 146 153
181 179 177 175 173 173 174 170 167 161 155 174 152 203 260 294 144 226 189 158 180 219 213 226 191 217 299 151 207 194 176 156 104 254 117 176 248 204 138 146 146 138 140 142 129 133 141 146 152 149 149 147 145 145
176 173 172 171 170 171 169 165 164 149 153 161 150 150 264 228 178 242 187 175 171 205 205 175 203 182 266 155 122 290 114 66 188 159 94 176 244 166 146 149 139 133 131 126 137 141 145 147 152 143 144 135 134 133
169 169 167 166 168 167 162 162 161 129 116 59 50 358 302 254 180 219 185 186 179 181 172 151 159 174 323 99 100 114 113 191 91 72 187 222 195 151 143 138 135 132 127 129 134 135 132 128 127 132 128 125 131 132
165 163 162 163 162 159 159 158 143 127 79 86 144 236 221 201 221 227 305 161 188 152 148 148 123 155 243 146 156 105 214 98 107 147 220 209 165 141 141 139 132 133 129 128 131 126 125 119 117 119 124 134 125 134
156 156 156 158 156 155 155 147 135 73 107 153 182 225 218 239 258 252 249 172 196 128 110 92 62 78 265 131 103 114 128 166 182 204 210 171 155 140 133 126 123 125 124 121 124 119 113 112 108 96 107 114 115 114
147 143 149 154 151 143 138 129 72 83 86 189 226 258 251 273 275 270 211 179 156 110 86 76 110 18 258 132 141 182 144 187 216 197 163 132 134 126 127 127 125 125 124 121 118 117 115 117 117 115 98 104 119 125
134 125 152 148 139 140 136 89 111 159 198 228 235 219 268 261 265 260 258 182 158 140 122 130 128 268 317 299 167 162 180 190 169 129 150 145 139 135 130 126 127 127 125 125 120 116 116 115 112 105 113 124 116 118
83 137 141 138 133 125 73 86 148 185 234 238 245 230 200 223 277 276 247 156 115 112 120 170 131 153 317 265 269 213 97 81 79 128 130 128 129 133 135 132 133 133 132 130 123 123 125 124 125 133 137 147 120 115
135 137 141 145 132 108 123 170 186 233 233 257 249 252 249 268 250 251 249 159 131 119 116 87 131 158 198 228 153 139 146 141 130 118 116 128 130 131 131 128 129 128 131 132 131 135 138 141 146 141 149 137 142 159
138 145 150 145 118 135 160 155 198 246 254 231 232 244 243 245 271 218 160 118 107 98 70 155 227 228 183 190 162 148 141 133 125 120 114 119 130 129 134 135 131 126 118 121 121 120 119 104 122 141 152 153 150 182
119 140 106 118 107 59 92 150 224 255 298 296 308 216 248 215 226 167 117 105 87 36 28 308 240 246 109 95 105 128 135 142 150 152 141 135 133 124 117 118 127 126 132 135 140 130 128 152 161 152 153 164 178 176
93 113 107 43 77 167 239 200 233 334 250 266 274 202 207 145 171 126 120 70 90 108 208 246 184 119 112 114 113 98 113 100 93 99 100 116 128 129 130 133 131 135 139 143 140 147 153 155 152 152 160 194 167 168
117 69 84 125 188 240 252 158 164 206 268 241 241 143 100 162 158 102 82 131 157 205 244 139 108 122 114 108 103 99 110 117 118 124 121 116 120 127 127 128 141 144 142 161 147 145 153 152 156 156 158 159 163 187
93 145 193 188 191 231 189 211 213 186 227 213 134 25 242 145 163 80 105 163 217 351 147 128 117 107 94 103 117 123 120 115 112 105 121 123 130 136 145 144 145 152 160 153 142 145 149 161 167 162 169 175 178 176
124 214 212 202 140 260 249 272 216 230 235 78 157 292 74 67 81 85 116 118 167 225 114 101 112 130 128 122 122 115 124 132 128 130 137 131 126 107 121 128 152 155 141 128 137 154 161 159 176 181 188 187 182 188
216 210 201 186 187 198 222 244 249 12 72 70 22 304 24 81 66 55 14 199 129 139 131 126 124 108 86 128 135 137 141 132 123 133 144 140 146 147 142 138 131 77 159 144 143 149 158 164 170 177 193 203 198 188
250 241 216 191 203 260 270 249 201 47 62 87 260 359 63 79 92 191 307 315 91 109 134 125 121 117 128 121 124 130 130 131 143 151 146 139 131 138 142 139 142 169 147 141 141 147 160 170 172 164 167 174 185 190
249 244 215 229 225 213 279 138 159 143 116 210 42 41 91 80 201 217 220 240 39 19 333 98 118 120 115 115 128 112 98 106 102 97 81 51 52 95 98 80 81 106 101 118 146 145 156 162 172 175 168 186 206 194
239 245 223 227 203 166 322 40 96 76 115 63 142 172 132 169 258 280 280 109 75 22 132 105 58 91 86 84 92 111 124 127 126 116 113 117 96 29 102 114 108 101 101 89 60 98 115 121 138 153 152 151 149 126
252 193 263 22 67 54 320 42 61 48 76 112 133 113 55 16 300 334 345 23 21 190 162 120 120 115 121 119 106 71 60 125 133 134 135 137 142 148 126 117 117 118 117 114 113 100 72 89 79 77 96 100 97 103
284 314 23 54 75 14 81 93 75 66 65 71 62 100 114 129 61 27 4 337 174 140 107 102 94 111 119 114 118 117 103 53 117 118 119 130 135 133 134 135 135 129 121 118 121 118 114 101 117 130 145 144 157 162
146 272 51 72 62 253 62 47 61 75 44 40 44 66 74 67 68 3 332 352 74 86 112 119 112 99 87 88 80 82 105 116 128 138 137 140 146 147 140 137 132 123 126 131 131 126 125 126 117 124 148 168 149 91
105 95 55 73 48 49 359 84 72 67 47 49 49 50 56 86 95 270 312 46 138 130 113 108 101 94 91 93 101 88 73 74 80 92 99 114 123 123 124 123 130 134 137 130 127 137 147 143 155 145 118 84 73 72